Latest Weather Observations for Maatsuyker Island

IDT60801

Issued at 11:05 am EDT Saturday 1 November 2014 (issued every 30 minutes, with the page automatically refreshed every 10 minutes)

About weather observations | Map of weather stations | Latest weather observations for TAS | Other Formats
Station Details ID: 094041 Name: MAATSUYKER ISLAND LIGHTHOUSE Lat: -43.66 Lon: 146.27 Height: 146.5 m
Data from the previous 72 hours. | See also: Recent months at Maatsuyker Island
Date/Time
EDT
Temp
°C
App
Temp
°C
Dew
Point
Rel
Hum
%
Delta-T
°C
Wind Press
QNH
hPa
Press
MSL
hPa
Rain
since 9 am
mm
Dir
 
Spd
km/h
Gust
km/h
Spd
kts
Gust
kts
01/11:00am 9.8 -6.9 4.8 71 2.3 NW 82 93 44 50 989.2 - 0.4
01/10:30am 9.6 -5.8 6.0 78 1.7 NW 76 83 41 45 989.6 - 0.2
01/10:10am 9.6 -5.9 5.3 74 2.0 NW 76 95 41 51 989.5 - 0.2
01/10:00am 8.6 -8.0 5.6 81 1.4 NW 82 93 44 50 989.5 - 0.2
01/09:30am 8.9 -5.2 5.7 80 1.5 NW 69 87 37 47 990.0 - 0.0
01/09:26am 8.7 -5.3 5.9 82 1.3 NW 69 87 37 47 990.5 - 0.0
01/09:00am 9.9 -5.9 5.9 76 1.9 WNW 78 91 42 49 989.7 989.4 8.2
01/08:30am 10.0 -5.2 6.9 81 1.5 NW 76 87 41 47 989.7 - 8.2
01/08:00am 9.8 -6.3 6.2 78 1.7 NW 80 87 43 47 989.3 - 8.2
01/07:30am 10.0 -6.1 6.0 76 1.9 NW 80 87 43 47 988.8 - 8.0
01/07:00am 10.2 -6.1 6.7 79 1.7 NW 82 95 44 51 988.8 - 8.0
01/06:30am 10.2 -5.7 6.9 80 1.6 NW 80 89 43 48 988.3 - 8.0
01/06:00am 10.0 -3.9 7.5 84 1.2 WNW 70 91 38 49 987.8 987.7 8.0
01/05:30am 9.8 -5.8 8.4 91 0.7 NW 80 93 43 50 986.9 - 8.0
01/05:07am 9.8 -5.8 9.8 100 0.0 NW 82 100 44 54 986.4 - 7.6
01/05:04am 9.6 -6.2 9.6 100 0.0 NW 83 100 45 54 986.4 - 6.8
01/05:03am 10.6 0.8 10.2 97 0.2 NW 52 100 28 54 987.3 - 6.4
01/05:02am 11.2 2.1 10.0 92 0.6 NNW 48 69 26 37 987.3 - 6.2
01/05:00am 11.1 2.4 10.1 94 0.5 NNW 46 57 25 31 986.7 - 6.0
01/04:30am 11.3 3.5 9.8 90 0.8 NNW 41 54 22 29 987.1 - 5.6
01/04:00am 11.2 3.0 9.8 91 0.7 NNW 43 57 23 31 987.7 - 5.6
01/03:30am 11.2 2.5 10.0 92 0.6 NNW 46 63 25 34 988.4 - 5.4
01/03:21am 11.4 0.8 9.9 90 0.8 NNW 56 74 30 40 988.2 - 5.2
01/03:00am 11.3 0.1 9.9 91 0.7 NNW 59 72 32 39 988.3 988.3 5.0
01/02:35am 12.0 2.0 10.7 92 0.7 NNW 54 72 29 39 988.4 - 4.4
01/02:30am 12.1 2.6 11.0 93 0.6 NNW 52 69 28 37 988.9 - 4.4
01/02:21am 12.3 4.5 11.2 93 0.6 NNW 43 67 23 36 989.0 - 4.0
01/02:00am 12.6 3.8 10.9 89 0.9 NNW 48 61 26 33 988.8 - 3.2
01/01:30am 12.7 3.8 12.0 95 0.4 NNW 50 65 27 35 989.0 - 2.6
01/01:26am 12.7 4.2 12.0 95 0.4 NNW 48 69 26 37 988.8 - 2.6
01/01:00am 13.1 0.6 12.0 93 0.6 NNW 69 89 37 48 989.2 - 2.2
01/12:30am 13.6 -0.3 11.8 89 1.0 NNW 76 98 41 53 988.8 - 2.2
01/12:00am 15.0 1.0 11.3 78 2.0 NNW 76 95 41 51 988.5 988.5 2.2
 
Date/Time
EDT
Temp
°C
App
Temp
°C
Dew
Point
Rel
Hum
%
Delta-T
°C
Wind Press
QNH
hPa
Press
MSL
hPa
Rain
since 9 am
mm
Dir
 
Spd
km/h
Gust
km/h
Spd
kts
Gust
kts
31/11:52pm 15.3 1.3 11.3 77 2.2 NNW 76 95 41 51 988.7 - 2.2
31/11:51pm 15.4 1.0 11.2 76 2.3 NNW 78 95 42 51 988.5 - 2.2
31/11:47pm 15.2 5.0 11.5 78 2.0 NNW 56 83 30 45 989.0 - 2.2
31/11:37pm 14.8 7.1 11.5 80 1.8 NNW 43 61 23 33 989.4 - 2.2
31/11:30pm 14.5 7.3 11.8 84 1.5 NNW 41 52 22 28 989.5 - 2.2
31/11:00pm 14.4 5.8 11.8 84 1.4 NNW 48 67 26 36 989.5 - 2.2
31/10:37pm 15.3 6.2 11.1 76 2.3 NNW 50 70 27 38 990.0 - 2.0
31/10:30pm 15.2 6.4 10.9 75 2.3 NNW 48 65 26 35 989.9 - 2.0
31/10:05pm 15.2 6.3 10.5 73 2.5 NNW 48 70 26 38 990.5 - 2.0
31/10:00pm 15.1 6.1 10.4 73 2.5 NNW 48 61 26 33 990.3 - 2.0
31/09:30pm 14.6 5.6 10.1 74 2.4 NNW 48 67 26 36 990.6 - 1.8
31/09:00pm 15.2 6.1 9.9 70 2.8 NNW 48 65 26 35 991.4 991.2 1.8
31/08:43pm 15.3 5.7 9.6 69 3.0 NNW 50 70 27 38 991.4 - 1.6
31/08:36pm 15.4 5.8 9.5 68 3.1 NNW 50 87 27 47 991.4 - 1.6
31/08:30pm 15.6 1.8 9.3 66 3.3 NNW 72 93 39 50 991.2 - 1.4
31/08:06pm 17.8 2.9 6.5 47 5.7 NNW 74 95 40 51 990.4 - 1.4
31/08:03pm 17.1 6.5 7.0 51 5.1 NNW 52 80 28 43 991.6 - 1.4
31/08:00pm 16.6 6.5 7.6 55 4.5 NNW 50 61 27 33 991.7 - 1.4
31/07:40pm 16.3 6.2 7.4 55 4.5 NNW 50 69 27 37 991.7 - 1.4
31/07:30pm 16.6 6.0 6.9 52 4.8 NNW 52 69 28 37 991.5 - 1.4
31/07:07pm 16.6 6.4 6.9 52 4.9 NNW 50 72 27 39 991.5 - 1.2
31/07:00pm 16.4 6.7 7.3 55 4.6 NNW 48 59 26 32 991.8 - 1.2
31/06:30pm 16.0 6.3 8.9 62 3.7 NNW 50 65 27 35 991.8 - 1.2
31/06:00pm 16.5 8.4 8.8 60 4.0 NNW 41 59 22 32 992.4 992.5 1.0
31/05:52pm 16.7 8.6 8.6 59 4.2 NNW 41 59 22 32 992.5 - 1.0
31/05:30pm 16.1 8.3 9.7 66 3.4 N 41 57 22 31 993.0 - 1.0
31/05:12pm 15.9 8.1 9.7 66 3.3 NNW 41 59 22 32 993.3 - 1.0
31/05:00pm 15.4 8.6 10.8 74 2.5 NNW 37 48 20 26 993.7 - 1.0
31/04:30pm 14.2 8.1 11.8 85 1.3 NNW 35 44 19 24 994.5 - 1.0
31/04:00pm 13.8 7.8 12.2 90 0.9 N 35 46 19 25 995.4 - 1.0
31/03:30pm 13.3 5.4 11.6 89 0.9 NNW 44 56 24 30 996.6 - 1.0
31/03:01pm 13.1 6.1 11.4 89 0.9 NNW 39 57 21 31 997.1 - 0.8
31/03:00pm 13.1 7.5 11.4 89 0.9 NW 32 57 17 31 997.2 997.0 0.8
31/02:30pm 12.6 5.5 10.9 89 0.9 NNW 39 48 21 26 997.9 - 0.6
31/02:00pm 12.3 5.8 10.2 87 1.1 NNW 35 44 19 24 998.4 - 0.4
31/01:30pm 12.2 4.8 9.9 86 1.2 NNW 39 48 21 26 998.8 - 0.4
31/01:00pm 11.8 4.4 9.9 88 1.0 NNW 39 50 21 27 999.1 - 0.4
31/12:30pm 11.6 4.2 9.7 88 1.0 NNW 39 46 21 25 999.7 - 0.4
31/12:00pm 11.9 4.0 9.4 85 1.3 NNW 41 54 22 29 999.9 1000.0 0.2
31/11:30am 12.0 5.5 8.8 81 1.6 NNW 33 44 18 24 1000.3 - 0.2
31/11:00am 12.2 4.5 8.8 80 1.7 NNW 39 48 21 26 1000.9 - 0.2
31/10:32am 11.2 3.9 8.6 84 1.3 NNW 37 56 20 30 1001.2 - 0.2
31/10:30am 11.1 3.4 8.7 85 1.2 NNW 39 56 21 30 1001.1 - 0.2
31/10:00am 10.6 3.0 9.2 91 0.7 NNW 39 52 21 28 1001.7 - 0.0
31/09:30am 10.5 2.4 8.5 87 1.0 NNW 41 54 22 29 1001.9 - 0.0
31/09:00am 10.4 1.7 8.4 87 1.0 NW 44 59 24 32 1002.1 1002.0 7.2
31/08:47am 10.5 0.7 8.5 87 1.0 NNW 50 69 27 37 1002.0 - 7.2
31/08:30am 10.6 0.5 8.8 89 0.9 NNW 52 67 28 36 1002.0 - 7.2
31/08:00am 10.6 3.1 9.6 93 0.5 NNW 39 57 21 31 1002.3 - 7.2
31/07:37am 10.6 2.9 10.2 97 0.2 NNW 41 59 22 32 1002.9 - 6.6
31/07:30am 10.6 0.8 10.0 96 0.3 NNW 52 59 28 32 1002.6 - 6.6
31/07:17am 10.5 4.0 10.3 99 0.1 NNW 35 54 19 29 1002.9 - 6.6
31/07:00am 10.7 1.7 10.3 97 0.2 NNW 48 59 26 32 1002.6 - 5.8
31/06:49am 10.6 2.9 10.2 97 0.2 NNW 41 59 22 32 1002.7 - 5.6
31/06:30am 11.0 2.4 10.4 96 0.3 NW 46 54 25 29 1003.0 - 4.8
31/06:00am 10.8 3.1 10.2 96 0.3 NW 41 54 22 29 1002.9 1002.9 4.8
31/05:30am 10.6 1.2 10.2 97 0.2 NW 50 56 27 30 1003.2 - 4.8
31/05:00am 10.4 1.0 10.0 97 0.2 NW 50 61 27 33 1003.4 - 4.8
31/04:30am 10.2 1.5 9.8 97 0.2 NW 46 52 25 28 1003.9 - 4.8
31/04:00am 10.1 1.3 9.5 96 0.3 NW 46 52 25 28 1004.3 - 4.6
31/03:30am 10.2 0.9 9.2 93 0.5 NW 48 54 26 29 1004.5 - 4.6
31/03:00am 9.7 0.6 9.7 100 0.0 NW 48 56 26 30 1004.7 1004.8 4.4
31/02:30am 9.9 0.8 9.9 100 0.0 NW 48 52 26 28 1004.9 - 4.0
31/02:00am 10.0 1.6 9.8 99 0.1 NW 44 50 24 27 1005.4 - 2.8
31/01:30am 10.4 0.2 10.2 99 0.1 NNW 54 67 29 36 1005.1 - 2.6
31/01:00am 10.7 0.9 10.1 96 0.3 NW 52 63 28 34 1005.6 - 1.6
31/12:54am 10.7 0.8 9.9 95 0.4 NW 52 59 28 32 1005.7 - 1.6
31/12:30am 10.0 4.3 9.8 99 0.1 NNW 30 41 16 22 1006.6 - 1.2
31/12:00am 9.7 4.3 9.5 99 0.1 NNW 28 35 15 19 1007.0 1007.0 0.8
 
Date/Time
EDT
Temp
°C
App
Temp
°C
Dew
Point
Rel
Hum
%
Delta-T
°C
Wind Press
QNH
hPa
Press
MSL
hPa
Rain
since 9 am
mm
Dir
 
Spd
km/h
Gust
km/h
Spd
kts
Gust
kts
30/11:30pm 9.8 -0.2 9.2 96 0.3 NW 52 59 28 32 1006.6 - 0.2
30/11:00pm 10.3 0.1 8.5 89 0.9 NW 52 61 28 33 1006.5 - 0.2
30/10:30pm 10.3 0.6 7.4 82 1.4 NNW 48 59 26 32 1006.8 - 0.2
30/10:00pm 10.6 1.0 7.9 83 1.3 NNW 48 57 26 31 1006.9 - 0.2
30/09:30pm 10.7 0.6 7.6 81 1.5 NNW 50 63 27 34 1006.9 - 0.2
30/09:00pm 10.7 -0.4 8.1 84 1.3 NNW 56 63 30 34 1006.6 1006.7 0.2
30/08:30pm 10.7 -0.7 7.4 80 1.6 NNW 57 67 31 36 1006.4 - 0.2
30/08:00pm 10.5 0.4 7.6 82 1.4 NNW 50 61 27 33 1006.7 - 0.2
30/07:30pm 10.4 -0.2 7.1 80 1.6 NNW 52 65 28 35 1006.5 - 0.2
30/07:00pm 10.4 -0.1 7.3 81 1.5 NW 52 59 28 32 1006.6 - 0.2
30/06:30pm 10.5 -0.8 5.3 70 2.4 NW 54 63 29 34 1006.4 - 0.2
30/06:00pm 10.5 -1.4 5.3 70 2.4 NW 57 65 31 35 1006.5 1006.9 0.2
30/05:30pm 10.4 -2.5 4.2 65 2.8 NW 61 70 33 38 1006.5 - 0.2
30/05:00pm 10.8 -1.8 5.4 69 2.5 NW 61 70 33 38 1006.9 - 0.2
30/04:30pm 11.1 -1.3 4.8 65 2.9 NW 59 65 32 35 1006.8 - 0.2
30/04:00pm 10.4 -3.3 3.9 64 2.9 NW 65 76 35 41 1006.6 - 0.2
30/03:30pm 10.5 -3.9 4.3 65 2.8 NW 69 76 37 41 1006.4 - 0.2
30/03:00pm 10.9 1.2 5.8 71 2.4 WNW 46 69 25 37 1006.8 1007.0 0.0
30/02:30pm 10.2 -1.5 5.2 71 2.3 WNW 56 63 30 34 1007.2 - 0.0
30/02:00pm 9.8 -2.0 4.7 70 2.3 NW 56 65 30 35 1006.9 - 0.0
30/01:30pm 10.0 -0.9 5.4 73 2.1 NW 52 59 28 32 1007.1 - 0.0
30/01:00pm 10.0 -2.0 4.5 68 2.5 NW 57 65 31 35 1007.0 - 0.0
30/12:30pm 9.9 -2.8 3.3 63 2.9 NW 59 63 32 34 1006.9 - 0.0
30/12:00pm 10.0 -2.3 3.4 63 2.9 NW 57 65 31 35 1007.0 1007.1 0.0
30/11:30am 10.0 -2.6 3.4 63 2.9 NW 59 69 32 37 1007.3 - 0.0
30/11:00am 9.5 -2.8 5.1 74 2.0 NW 59 65 32 35 1007.5 - 0.0
30/10:30am 9.9 -2.2 4.3 68 2.5 NW 57 65 31 35 1007.4 - 0.0
30/10:00am 9.9 -2.0 4.1 67 2.6 NW 56 65 30 35 1007.3 - 0.0
30/09:30am 9.8 -2.1 4.2 68 2.5 NW 56 65 30 35 1007.3 - 0.0
30/09:00am 9.6 -0.5 4.0 68 2.5 W 46 59 25 32 1007.2 1007.3 3.4
30/08:30am 9.6 -2.5 4.0 68 2.5 NW 57 65 31 35 1006.9 - 3.4
30/08:00am 9.5 -2.0 6.1 79 1.6 WNW 56 63 30 34 1006.8 - 3.4
30/07:30am 9.2 -0.8 6.0 80 1.5 WNW 48 56 26 30 1006.8 - 3.4
30/07:00am 8.9 0.4 6.8 87 1.0 WNW 41 52 22 28 1006.8 - 3.4
30/06:43am 8.8 0.3 7.1 89 0.8 WNW 41 59 22 32 1006.8 - 3.4
30/06:30am 9.6 -0.9 7.5 87 1.0 NW 52 61 28 33 1005.9 - 3.4
30/06:00am 9.4 0.8 8.2 92 0.6 W 43 57 23 31 1005.7 1005.8 3.4
30/05:30am 9.3 -0.1 8.7 96 0.3 WNW 48 54 26 29 1005.8 - 3.4
30/05:00am 8.7 0.6 8.7 100 0.0 WNW 41 50 22 27 1005.8 - 3.2
30/04:30am 9.1 -0.2 9.1 100 0.0 WNW 48 56 26 30 1005.3 - 2.8
30/04:00am 9.1 -1.8 8.9 99 0.1 WNW 56 63 30 34 1005.4 - 2.6
30/03:30am 10.2 -0.1 9.6 96 0.3 NW 54 69 29 37 1004.6 - 1.8
30/03:00am 10.1 -1.2 9.5 96 0.3 NW 59 69 32 37 1005.2 1005.2 1.8
30/02:55am 10.2 -1.4 9.6 96 0.3 NW 61 80 33 43 1005.2 - 1.8
30/02:30am 10.5 -3.0 9.1 91 0.7 NW 70 78 38 42 1004.7 - 1.8
30/02:00am 10.4 -2.9 9.2 92 0.6 NW 69 78 37 42 1004.4 - 1.6
30/01:30am 10.3 -2.9 9.5 95 0.4 NW 69 76 37 41 1004.9 - 1.4
30/01:00am 10.8 -2.7 9.0 89 0.9 NW 70 78 38 42 1004.5 - 1.4
30/12:30am 9.9 -4.3 9.3 96 0.3 NW 74 82 40 44 1004.8 - 1.4
30/12:00am 10.8 -4.2 9.0 89 0.9 NW 78 89 42 48 1004.3 1004.6 1.4
 
Date/Time
EDT
Temp
°C
App
Temp
°C
Dew
Point
Rel
Hum
%
Delta-T
°C
Wind Press
QNH
hPa
Press
MSL
hPa
Rain
since 9 am
mm
Dir
 
Spd
km/h
Gust
km/h
Spd
kts
Gust
kts
29/11:30pm 11.0 -2.3 9.0 87 1.0 NW 69 78 37 42 1004.6 - 1.4
29/11:00pm 10.9 -2.5 8.7 86 1.1 NNW 69 80 37 43 1004.8 - 1.4
29/10:30pm 10.6 -2.3 9.0 90 0.8 NNW 67 80 36 43 1005.0 - 1.4
29/10:00pm 10.3 -2.4 9.9 97 0.2 NNW 67 80 36 43 1005.3 - 1.2
29/09:30pm 10.8 -2.6 8.8 87 1.0 NW 69 82 37 44 1005.0 - 1.0
29/09:00pm 10.8 -3.5 8.8 87 1.0 NNW 74 91 40 49 1004.8 1004.8 1.0
29/08:30pm 11.2 -3.7 8.0 81 1.6 NNW 76 91 41 49 1004.5 - 1.0
29/08:00pm 10.8 -4.4 8.2 84 1.3 NW 78 95 42 51 1004.1 - 0.8
29/07:46pm 10.2 -4.9 8.8 91 0.7 NNW 78 96 42 52 1004.3 - 0.8
29/07:30pm 10.4 -5.4 9.6 95 0.4 NW 83 96 45 52 1003.8 - 0.8
29/07:21pm 11.2 -3.5 9.0 86 1.1 NNW 76 96 41 52 1003.6 - 0.8
29/07:00pm 10.9 -4.4 9.5 91 0.7 NW 80 89 43 48 1003.4 - 0.8
29/06:30pm 10.7 -4.1 9.7 93 0.5 NNW 78 95 42 51 1003.1 - 0.8
29/06:00pm 11.0 -2.6 10.2 95 0.4 NNW 72 98 39 53 1003.0 1003.1 0.6
29/05:30pm 11.2 -4.5 9.2 87 1.0 NNW 82 102 44 55 1003.0 - 0.2
29/05:00pm 11.9 -2.5 8.3 78 1.8 NNW 74 95 40 51 1003.4 - 0.2
29/04:37pm 12.1 -2.8 7.9 75 2.1 NNW 76 95 41 51 1003.3 - 0.2
29/04:30pm 12.1 -3.2 8.1 76 2.0 NNW 78 95 42 51 1003.2 - 0.2
29/04:04pm 11.8 -3.8 8.2 78 1.8 NNW 80 100 43 54 1003.1 - 0.2
29/04:00pm 11.8 -3.4 8.4 80 1.7 NNW 78 93 42 50 1003.4 - 0.2
29/03:45pm 11.9 -2.4 8.9 82 1.5 NNW 74 93 40 50 1003.7 - 0.2
29/03:30pm 11.8 -3.3 8.6 81 1.6 NNW 78 95 42 51 1003.4 - 0.2
29/03:01pm 11.8 -3.7 8.8 82 1.5 NNW 80 100 43 54 1003.4 - 0.2
29/03:00pm 11.9 -2.3 9.1 83 1.4 WNW 74 96 40 52 1003.4 1003.6 0.2
29/02:30pm 11.2 -4.5 9.2 87 1.0 NNW 82 102 44 55 1003.7 - 0.2
29/02:00pm 11.2 -5.3 8.6 84 1.3 NNW 85 111 46 60 1003.9 - 0.2
29/01:30pm 11.5 -4.2 7.8 78 1.8 NNW 80 102 43 55 1003.3 - 0.0
29/01:00pm 11.5 -4.5 8.1 79 1.7 NNW 82 104 44 56 1003.7 - 0.0
29/12:32pm 11.8 -3.6 7.5 75 2.1 NNW 78 96 42 52 1003.8 - 0.0
29/12:30pm 11.8 -4.0 7.5 75 2.1 NNW 80 96 43 52 1004.1 - 0.0
29/12:12pm 11.5 -3.7 8.5 82 1.5 NNW 78 102 42 55 1003.9 - 0.0
29/12:00pm 11.7 -3.7 7.6 76 2.0 NNW 78 93 42 50 1004.1 1004.3 0.0
29/11:30am 11.3 -3.1 8.5 83 1.4 NNW 74 93 40 50 1004.8 - 0.0
29/11:16am 11.2 -3.2 8.4 83 1.4 NNW 74 93 40 50 1005.0 - 0.0

Other Formats:

Comma delimited format used in spreadsheet applications
http://www.bom.gov.au/fwo/IDT60801/IDT60801.94962.axf

JavaScript Object Notation format (JSON) in row-major order
http://www.bom.gov.au/fwo/IDT60801/IDT60801.94962.json